Flag for Canada Weather past 2 weeks in Regina, Saskatchewan, Canada

Now
25 °F

Ice fog.


Feels Like: 14 °F
Forecast: 21 / 25 °F
Wind: 12 mph from North

Location: Regina Weather Station

Current Time: Dec 22, 2014 at 1:35:12 PM

Latest Report: Dec 22, 2014 at 1:00 PM


Visibility: 2 mi

Pressure: 29.80 "Hg

Humidity: 93%

Dew point: 23 °F

Location of ReginaLocation

Historic Weather in Regina — Graph

°F

Regina temperature yesterday

Maximum temperature yesterday: 25 °F (at 3:00 PM)
Minimum temperature yesterday: 14 °F (at 2:46 AM)
Average temperature yesterday: 19 °F

Past Weeks' High & Low Weather Summary

 TemperatureHumidityPressure
High39 °F (Dec 10, 4:00 AM)100% (Dec 8, 1:00 AM)30.44 "Hg (Dec 8, 1:00 AM)
Low14 °F (Dec 19, 10:00 PM)74% (Dec 15, 8:00 PM)29.44 "Hg (Dec 21, 3:00 PM)
Average24 °F91%30.01 "Hg
* Reported Dec 7 12:00 Noon — Dec 22 12:00 Noon, Regina, Weather by CustomWeather, © 2014

Note: Actual official high and low records may vary slightly from our data, if they occured in-between our weather recording intervals... More about our weather records

Advertising

Regina weather history for previous 24 hours

 ConditionsComfort  
Time TempWeatherWind HumidityBarometerVisibility
12:00 PM
Dec 22
25 °FLight snow. Ice fog.12 mph93%29.78 "Hg2 mi
11:46 AM25 °FLight snow. Ice fog.12 mph93%29.78 "Hg2 mi
11:00 AM25 °FIce fog.10 mph93%29.76 "Hg2 mi
10:00 AM23 °FIce fog.8 mph100%29.74 "Hg1 mi
9:00 AM23 °FIce fog.10 mph100%29.71 "Hg1 mi
8:00 AM23 °FIce fog.12 mph100%29.70 "Hg1 mi
7:00 AM23 °FIce fog.12 mph100%29.67 "Hg1 mi
6:47 AM23 °FIce fog.10 mph100%29.66 "Hg1 mi
6:00 AM23 °FLight snow. Ice fog.10 mph100%29.65 "Hg1 mi
5:00 AM23 °FIce fog.10 mph100%29.63 "Hg1 mi
4:00 AM23 °FLight snow. Ice fog.10 mph100%29.62 "Hg2 mi
3:00 AM25 °FLow clouds.6 mph93%29.60 "Hg10 mi
2:46 AM25 °FLow clouds.7 mph93%29.59 "Hg10 mi
2:00 AM23 °FLow clouds.7 mph100%29.58 "Hg10 mi
1:00 AM23 °FOvercast.7 mph93%29.57 "Hg12 mi
12:00 AM23 °FMostly cloudy.8 mph93%29.56 "Hg15 mi
11:00 PM
Dec 21
23 °FOvercast.8 mph100%29.54 "Hg15 mi
10:00 PM25 °FOvercast.7 mph93%29.52 "Hg15 mi
9:00 PM25 °FOvercast.7 mph93%29.50 "Hg15 mi
8:00 PM25 °FOvercast.12 mph100%29.49 "Hg15 mi
7:00 PM23 °FOvercast.14 mph100%29.49 "Hg15 mi
6:00 PM23 °FPassing clouds.10 mph93%29.49 "Hg15 mi
5:00 PM25 °FPassing clouds.13 mph93%29.45 "Hg15 mi
4:00 PM25 °FScattered clouds.14 mph100%29.44 "Hg15 mi
3:00 PM25 °FPassing clouds.13 mph100%29.44 "Hg15 mi
2:00 PM23 °FPassing clouds.15 mph100%29.44 "Hg15 mi
1:00 PM21 °FPassing clouds.14 mph100%29.46 "Hg15 mi
Weather by CustomWeather, © 2014

See weather overviewHow to use our weather pages